sat.trackr.live / text

‹ back to catalog

STARLINK-36303

NORAD 68969 · 2026-099U

PAYLOAD ACTIVE UNKNOWN

§ Identity

Operator
Country
US
Launch date
2026-05-01
Launch site
AFETR
Launch vehicle
Mass (kg)
RCS (m²)

Purposes: comms

External: N2YO · Heavens-Above · Gunter

§ Orbital elements

Epoch: 2026-05-24T20:15:14.297472Z

Period
91.53 min
Inclination
53.1584°
Eccentricity
0.0001427
Mean motion
15.73190179 rev/d
Perigee alt
348.8 km
Apogee alt
350.7 km
Semi-major
6,727.9 km
B*
-3.6271e-3
RAAN
271.4749°
Arg perigee
46.2943°
Mean anomaly
313.8195°
Rev number
367

§ Raw data

STARLINK-363031 68969U 26099U   26144.84391548 -.00481425  00000+0 -36271-2 0  99992 68969  53.1584 271.4749 0001427  46.2943 313.8195 15.73190179  3671

JSON: /api/v1/satellites/68969 · /tle

For live sub-satellite position, see the globe view (requires WebGL).

§ Visibility from observer

Set your observer location to see the next 7 days of passes ≥ 10°. The values pass through the URL so the page stays shareable.

No JS? Fill the form by hand. The geolocation button needs JavaScript.